Location: Unspecified
(0.0000°N, 0.0000°E)
Time: 11:48:52
(UTC+00:00)

Vanguard 3 - Pass Details

Date: 14 October 2022
Orbit: 509 x 3255 km, 33.3° (Epoch: 30 November)

Event Time Altitude Azimuth Distance (km) Brightness Sun altitude
Rises 17:51:08 0° 239° (WSW) 6,248 13.2 -1.3°
Reaches altitude 10° 17:57:31 10° 221° (SW) 5,675 12.3 -2.9°
Maximum altitude 18:08:19 18° 184° (S) 5,450 11.5 -5.5°
Drops below altitude 10° 18:20:01 10° 148° (SSE) 6,155 11.4 -8.4°
Sets 18:27:35 0° 130° (SE) 6,958 11.5 -10.3°
